Flag for Greece Weather past 2 weeks in Keratsini, Greece

77 °F

Scattered clouds.

Feels Like: 78 °F
Forecast: 63 / 80 °F
Wind: 7 mph from North

Location: Elefsis Airport

Current Time: Oct 4, 2015 at 1:02:47 PM

Latest Report: Oct 4, 2015 at 12:20 PM

Visibility: N/A

Pressure: 30.21 "Hg

Humidity: 42%

Dew point: 52 °F

Location of KeratsiniLocation

Historic Weather in Keratsini — Graph


Keratsini temperature yesterday

Maximum temperature yesterday: 75 °F (at 1:50 PM)
Minimum temperature yesterday: 61 °F (at 3:50 AM)
Average temperature yesterday: 67 °F

Past Weeks' High & Low Weather Summary

High91 °F (Sep 19, 1:50 PM)94% (Sep 21, 10:20 AM)30.30 "Hg (Sep 21, 10:20 AM)
Low59 °F (Sep 21, 10:20 AM)18% (Sep 19, 1:50 PM)29.62 "Hg (Sep 21, 9:50 AM)
Average72 °F63%29.96 "Hg
* Reported Sep 19 11:20 AM — Oct 4 11:50 AM, Keratsini, Weather by CustomWeather, © 2015

Note: Actual official high and low records may vary slightly from our data, if they occured in-between our weather recording intervals... More about our weather records


Keratsini weather history for previous 24 hours

Time TempWeatherWind HumidityBarometerVisibility
11:50 AM
Sun, Oct 4
75 °FScattered clouds.7 mph44%30.21 "HgN/A
11:20 AM75 °FScattered clouds.No wind44%30.21 "HgN/A
10:50 AM72 °FScattered clouds.5 mph53%30.21 "HgN/A
10:20 AM72 °FScattered clouds.5 mph53%30.24 "HgN/A
9:50 AM70 °FPassing clouds.7 mph57%30.24 "HgN/A
9:20 AM68 °FPassing clouds.5 mph64%30.24 "HgN/A
8:50 AM66 °FPassing clouds.5 mph64%30.24 "HgN/A
8:20 AM63 °FPassing clouds.5 mph73%30.21 "HgN/A
7:50 AM59 °FPassing clouds.5 mph82%30.21 "HgN/A
6:20 AM61 °FPassing clouds.6 mph77%30.21 "HgN/A
5:50 AM63 °FPassing clouds.6 mph73%30.21 "HgN/A
5:20 AM63 °FPassing clouds.7 mph73%30.21 "HgN/A
4:50 AM59 °FPassing clouds.6 mph77%30.21 "HgN/A
4:20 AM59 °FPassing clouds.5 mph77%30.21 "HgN/A
3:50 AM61 °FPassing clouds.5 mph72%30.21 "HgN/A
3:20 AM63 °FPassing clouds.7 mph68%30.21 "HgN/A
2:50 AM61 °FPassing clouds.6 mph72%30.21 "HgN/A
2:20 AM63 °FPassing clouds.8 mph68%30.24 "HgN/A
1:50 AM63 °FPassing clouds.6 mph68%30.24 "HgN/A
1:20 AM63 °FPassing clouds.3 mph68%30.24 "HgN/A
11:50 PM
Sat, Oct 3
63 °FPassing clouds.3 mph68%30.24 "HgN/A
11:20 PM63 °FPassing clouds.3 mph68%30.24 "HgN/A
10:50 PM64 °FPassing clouds.3 mph68%30.24 "HgN/A
10:20 PM64 °FPassing clouds.3 mph68%30.24 "HgN/A
9:50 PM64 °FPassing clouds.5 mph68%30.24 "HgN/A
9:20 PM64 °FPassing clouds.3 mph68%30.24 "HgN/A
8:50 PM64 °FPassing clouds.6 mph64%30.24 "HgN/A
8:20 PM68 °FPassing clouds.3 mph60%30.24 "HgN/A
7:50 PM68 °FPassing clouds.3 mph56%30.21 "HgN/A
7:20 PM70 °FPassing clouds.7 mph53%30.21 "HgN/A
6:50 PM72 °FPassing clouds.7 mph50%30.21 "HgN/A
6:20 PM72 °FPassing clouds.8 mph50%30.21 "HgN/A
5:50 PM73 °FPassing clouds.9 mph47%30.21 "HgN/A
5:20 PM73 °FScattered clouds.9 mph47%30.21 "HgN/A
4:50 PM75 °FScattered clouds.12 mph44%30.21 "HgN/A
4:20 PM73 °FScattered clouds.9 mph50%30.21 "HgN/A
3:50 PM73 °FScattered clouds.12 mph50%30.21 "HgN/A
3:20 PM73 °FScattered clouds.9 mph50%30.24 "HgN/A
2:50 PM73 °FScattered clouds.9 mph50%30.24 "HgN/A
2:20 PM75 °FScattered clouds.12 mph47%30.24 "HgN/A
1:50 PM75 °FScattered clouds.12 mph44%30.24 "HgN/A
1:20 PM73 °FPassing clouds.12 mph50%30.24 "HgN/A
Weather by CustomWeather, © 2015

See weather overviewHow to use our weather pages